Regional Weather Roundup
Issued by NWS Kansas City/Pleasant Hill, MO

Home | Current Version | Previous Version | Graphics & Text | Print | Product List | Glossary Off
Versions: 1 2 3 4 5 6 7 8 9 10 11 12 13 14 15 16 17 18 19 20 21 22 23 24 25 26 27

000
ASUS43 KEAX 250710
RWREAX

WEATHER ROUNDUP FOR EASTERN KANSAS AND NORTHWEST MISSOURI
NATIONAL WEATHER SERVICE KANSAS CITY/PLEASANT HILL MO
200 AM CDT TUE JUL 25 2017

KSZ040-057-103>105-MOZ028-029-037-043-250800-
...KANSAS CITY METROPOLITAN AREA...

CITY           SKY/WX    TMP DP  RH WIND       PRES   REMARKS
K.C. INTL      FAIR      74  67  78 SE9       30.05R
K.C. DOWNTOWN  FAIR      76  68  76 E6        30.04R
LEES SUMMIT    FAIR      73  68  84 SE7       30.06S
OLATHE - IXD   FAIR      73  67  81 SE7       30.06R
OLATHE - OJC   FAIR      73  68  84 SE7       30.05F
LAWRENCE       FAIR      72  71  97 SE5       30.04S

$$

MOZ001>008-011>017-020>025-030>033-038>040-044>046-053-054-250800-
...NORTHERN AND CENTRAL MISSOURI...

CITY           SKY/WX    TMP DP  RH WIND       PRES   REMARKS
ST. JOSEPH     FAIR      73  68  84 SE8       30.04S
MOSBY          FAIR      70  68  94 CALM      30.05S
WARRENSBURG    FAIR      68  64  88 E3        30.05S
WHITEMAN AFB   CLEAR     69  69 100 SE3       30.04F
CLINTON        FAIR      70  66  88 E5        30.05F
SEDALIA        FAIR      70  69  97 SE3       30.07S
WARSAW         NOT AVBL
CHILLICOTHE      N/A     72  66  81 SE5       30.08S
KIRKSVILLE     FAIR      67  65  93 E5        30.10S

$$

MOZ041-047>049-056>058-063>065-088>090-097-250800-
...EASTERN AND SOUTHERN MISSOURI...

CITY           SKY/WX    TMP DP  RH WIND       PRES   REMARKS
ST. LOUIS INTL FAIR      76  67  73 E9        30.06S
SPIRIT OF STL  FAIR      74  69  85 E3        30.04S
COLUMBIA       FAIR      70  67  90 E7        30.07R
JEFFERSON CITY FAIR      73  68  84 E3        30.05R
ROLLA          FAIR      73  66  78 E8        30.05S
OSAGE BEACH    FAIR      71  66  84 NE3       30.06R
SPRINGFIELD    FAIR      76  70  82 CALM      30.05S
BRANSON          N/A     77  68  73 CALM      30.05S
JOPLIN         FAIR      77  74  90 CALM      30.04S
WEST PLAINS    FAIR      73  72  96 N6        30.05S

$$

IAZ060-094-KSZ022-034>040-054-083-096-NEZ052-066-093-250800-
...KANSAS...SOUTHEAST NEBRASKA AND IOWA...

CITY           SKY/WX    TMP DP  RH WIND       PRES   REMARKS
TOPEKA         FAIR      75  71  87 E3        30.03S
MANHATTAN      FAIR      79  74  84 E3        30.01S
EMPORIA        FAIR      76  73  91 SE9       30.04S
CHANUTE        FAIR      79  74  84 E7        30.04S
WICHITA        FAIR      75  68  78 S6        30.03R
OMAHA          FAIR      75  65  70 SE13      29.99S
LINCOLN        FAIR      74  67  78 S8        29.99S
FALLS CITY     FAIR      70  67  90 SE5       30.01S
LAMONI         FAIR      69  64  84 SE6       30.07R
DES MOINES     FAIR      70  65  84 SE12      30.07R

$$





USA.gov is the U.S. government's official web portal to all federal, state and local government web resources and services.